Time,TemperatureF,DewpointF,PressureIn,WindDirection,WindDirectionDegrees,WindSpeedMPH,WindSpeedGustMPH,Humidity,HourlyPrecipIn,Conditions,Clouds,dailyrainin,SoftwareType,DateUTC
2013-07-02 00:01:00,68.0,49.0,-100.00,East,100,5.0,7.0,50,0.00,,,-99.99,,2013-07-02 05:01:00,
2013-07-02 00:11:00,68.0,49.0,-100.00,East,100,5.0,7.0,50,0.00,,,-99.99,,2013-07-02 05:11:00,
2013-07-02 00:22:00,67.0,49.0,-100.00,East,90,5.0,7.0,52,0.00,,,-99.99,,2013-07-02 05:22:00,
2013-07-02 00:32:00,67.0,49.0,-100.00,East,85,5.0,6.0,52,0.00,,,-99.99,,2013-07-02 05:32:00,
2013-07-02 00:43:00,67.0,49.0,-100.00,East,85,4.0,6.0,52,0.00,,,-99.99,,2013-07-02 05:43:00,
2013-07-02 00:53:00,66.0,49.0,-100.00,East,90,1.0,4.0,53,0.00,,,-99.99,,2013-07-02 05:53:00,
2013-07-02 01:01:00,65.0,49.0,-100.00,ENE,60,1.0,4.0,55,0.00,,,-99.99,,2013-07-02 06:01:00,
2013-07-02 01:12:00,65.0,49.0,-100.00,ENE,60,1.0,4.0,55,0.00,,,-99.99,,2013-07-02 06:12:00,
2013-07-02 01:23:00,64.0,49.0,-100.00,East,100,0.0,1.0,58,0.00,,,-99.99,,2013-07-02 06:23:00,
2013-07-02 01:34:00,64.0,49.0,-100.00,East,85,1.0,2.0,58,0.00,,,-99.99,,2013-07-02 06:34:00,
2013-07-02 01:43:00,65.0,50.0,-100.00,ENE,70,2.0,2.0,58,0.00,,,-99.99,,2013-07-02 06:43:00,
2013-07-02 01:53:00,64.0,50.0,-100.00,NE,45,1.0,2.0,58,0.00,,,-99.99,,2013-07-02 06:53:00,
2013-07-02 02:01:00,65.0,50.0,-100.00,North,350,0.0,1.0,58,0.00,,,-99.99,,2013-07-02 07:01:00,
2013-07-02 02:12:00,65.0,50.0,-100.00,NE,45,1.0,1.0,58,0.00,,,-99.99,,2013-07-02 07:12:00,
2013-07-02 02:22:00,64.0,50.0,-100.00,NE,40,0.0,1.0,59,0.00,,,-99.99,,2013-07-02 07:22:00,
2013-07-02 02:34:00,64.0,50.0,-100.00,North,5,1.0,2.0,59,0.00,,,-99.99,,2013-07-02 07:34:00,
2013-07-02 02:44:00,64.0,50.0,-100.00,North,5,2.0,2.0,59,0.00,,,-99.99,,2013-07-02 07:44:00,
2013-07-02 02:53:00,64.0,50.0,-100.00,NNW,340,2.0,2.0,60,0.00,,,-99.99,,2013-07-02 07:53:00,
2013-07-02 03:02:00,64.0,50.0,-100.00,North,0,2.0,2.0,60,0.00,,,-99.99,,2013-07-02 08:02:00,
2013-07-02 03:12:00,64.0,50.0,-100.00,North,5,1.0,2.0,59,0.00,,,-99.99,,2013-07-02 08:12:00,
2013-07-02 03:22:00,64.0,50.0,-100.00,North,5,1.0,2.0,59,0.00,,,-99.99,,2013-07-02 08:22:00,
2013-07-02 03:33:00,64.0,50.0,-100.00,North,5,1.0,2.0,59,0.00,,,-99.99,,2013-07-02 08:33:00,
2013-07-02 03:44:00,64.0,49.0,-100.00,NNW,335,0.0,2.0,59,0.00,,,-99.99,,2013-07-02 08:44:00,
2013-07-02 03:53:00,63.0,50.0,-100.00,North,0,1.0,1.0,60,0.00,,,-99.99,,2013-07-02 08:53:00,
2013-07-02 04:02:00,63.0,50.0,-100.00,NNW,330,2.0,3.0,61,0.00,,,-99.99,,2013-07-02 09:02:00,
2013-07-02 04:11:00,63.0,50.0,-100.00,NW,320,2.0,3.0,62,0.00,,,-99.99,,2013-07-02 09:11:00,
2013-07-02 04:23:00,63.0,50.0,-100.00,NW,320,2.0,3.0,62,0.00,,,-99.99,,2013-07-02 09:23:00,
2013-07-02 04:33:00,62.0,50.0,-100.00,NNW,340,3.0,4.0,66,0.00,,,-99.99,,2013-07-02 09:33:00,
2013-07-02 04:43:00,61.0,51.0,-100.00,NNW,340,4.0,6.0,69,0.00,,,-99.99,,2013-07-02 09:43:00,
2013-07-02 04:52:00,62.0,51.0,-100.00,NNW,335,3.0,4.0,68,0.00,,,-99.99,,2013-07-02 09:52:00,
2013-07-02 05:01:00,62.0,51.0,-100.00,NNW,330,5.0,6.0,67,0.00,,,-99.99,,2013-07-02 10:01:00,
2013-07-02 05:11:00,61.0,52.0,-100.00,NNW,330,6.0,7.0,72,0.00,,,-99.99,,2013-07-02 10:11:00,
2013-07-02 05:22:00,60.0,52.0,-100.00,NNW,330,6.0,7.0,75,0.00,,,-99.99,,2013-07-02 10:22:00,
2013-07-02 05:33:00,59.0,52.0,-100.00,NNW,335,6.0,7.0,77,0.00,,,-99.99,,2013-07-02 10:33:00,
2013-07-02 05:43:00,59.0,53.0,-100.00,NNW,345,6.0,6.0,78,0.00,,,-99.99,,2013-07-02 10:43:00,
2013-07-02 06:01:00,60.0,53.0,-100.00,NNW,335,5.0,6.0,75,0.00,,,-99.99,,2013-07-02 11:01:00,
2013-07-02 06:11:00,60.0,52.0,-100.00,NNW,335,6.0,6.0,76,0.00,,,-99.99,,2013-07-02 11:11:00,
2013-07-02 06:22:00,60.0,53.0,-100.00,NNW,335,6.0,6.0,77,0.00,,,-99.99,,2013-07-02 11:22:00,
2013-07-02 06:33:00,60.0,53.0,-100.00,NNW,335,5.0,6.0,75,0.00,,,-99.99,,2013-07-02 11:33:00,
2013-07-02 06:42:00,60.0,53.0,-100.00,NNW,335,5.0,6.0,75,0.00,,,-99.99,,2013-07-02 11:42:00,
2013-07-02 07:01:00,62.0,52.0,-100.00,NNW,330,5.0,6.0,71,0.00,,,-99.99,,2013-07-02 12:01:00,
2013-07-02 07:11:00,62.0,52.0,-100.00,NNW,335,4.0,5.0,69,0.00,,,-99.99,,2013-07-02 12:11:00,
2013-07-02 07:23:00,62.0,52.0,-100.00,NNW,335,4.0,5.0,69,0.00,,,-99.99,,2013-07-02 12:23:00,
2013-07-02 07:33:00,63.0,52.0,-100.00,NNW,330,4.0,4.0,68,0.00,,,-99.99,,2013-07-02 12:33:00,
2013-07-02 07:43:00,63.0,52.0,-100.00,NNW,340,3.0,4.0,67,0.00,,,-99.99,,2013-07-02 12:43:00,
2013-07-02 08:01:00,64.0,53.0,-100.00,NNW,330,4.0,4.0,66,0.00,,,-99.99,,2013-07-02 13:01:00,
2013-07-02 08:11:00,66.0,56.0,-100.00,NNW,330,4.0,6.0,72,0.00,,,-99.99,,2013-07-02 13:11:00,
2013-07-02 08:34:00,68.0,58.0,-100.00,NNW,335,2.0,4.0,70,0.00,,,-99.99,,2013-07-02 13:34:00,
2013-07-02 08:43:00,69.0,58.0,-100.00,NNW,330,4.0,6.0,68,0.00,,,-99.99,,2013-07-02 13:43:00,
2013-07-02 09:02:00,70.0,59.0,-100.00,NW,315,3.0,7.0,67,0.00,,,-99.99,,2013-07-02 14:02:00,
2013-07-02 09:11:00,70.0,59.0,-100.00,NW,315,3.0,7.0,67,0.00,,,-99.99,,2013-07-02 14:11:00,
2013-07-02 09:22:00,71.0,59.0,-100.00,NNW,340,3.0,4.0,65,0.00,,,-99.99,,2013-07-02 14:22:00,
2013-07-02 09:33:00,72.0,58.0,-100.00,NNW,330,4.0,6.0,61,0.00,,,-99.99,,2013-07-02 14:33:00,
2013-07-02 09:43:00,73.0,59.0,-100.00,NNW,330,4.0,7.0,60,0.00,,,-99.99,,2013-07-02 14:43:00,
2013-07-02 10:02:00,74.0,57.0,-100.00,NNW,330,6.0,10.0,56,0.00,,,-99.99,,2013-07-02 15:02:00,
2013-07-02 10:11:00,74.0,57.0,-100.00,NNW,330,6.0,10.0,56,0.00,,,-99.99,,2013-07-02 15:11:00,
2013-07-02 10:22:00,73.0,57.0,-100.00,NW,315,6.0,11.0,56,0.00,,,-99.99,,2013-07-02 15:22:00,
2013-07-02 10:31:00,74.0,59.0,-100.00,NW,315,7.0,11.0,57,0.00,,,-99.99,,2013-07-02 15:31:00,
2013-07-02 10:33:00,73.0,57.0,-100.00,NNW,330,7.0,11.0,56,0.00,,,-99.99,,2013-07-02 15:33:00,
2013-07-02 10:44:00,73.0,58.0,-100.00,NW,315,6.0,11.0,58,0.00,,,-99.99,,2013-07-02 15:44:00,
2013-07-02 10:53:00,74.0,59.0,-100.00,NW,315,7.0,11.0,57,0.00,,,-99.99,,2013-07-02 15:53:00,
2013-07-02 11:12:00,74.0,59.0,-100.00,NW,315,7.0,11.0,57,0.00,,,-99.99,,2013-07-02 16:12:00,
2013-07-02 11:22:00,74.0,59.0,-100.00,NW,315,7.0,11.0,57,0.00,,,-99.99,,2013-07-02 16:22:00,
2013-07-02 11:43:00,78.0,58.0,-100.00,WNW,300,7.0,9.0,49,0.00,,,-99.99,,2013-07-02 16:43:00,
2013-07-02 12:02:00,79.0,58.0,-100.00,NNW,340,6.0,11.0,48,0.00,,,-99.99,,2013-07-02 17:02:00,
2013-07-02 12:22:00,79.0,58.0,-100.00,NNW,340,6.0,11.0,48,0.00,,,-99.99,,2013-07-02 17:22:00,
2013-07-02 12:43:00,81.0,58.0,-100.00,WNW,300,5.0,10.0,46,0.00,,,-99.99,,2013-07-02 17:43:00,
2013-07-02 12:53:00,79.0,56.0,-100.00,NW,315,7.0,11.0,45,0.00,,,-99.99,,2013-07-02 17:53:00,
2013-07-02 13:02:00,80.0,57.0,-100.00,WNW,300,6.0,11.0,46,0.00,,,-99.99,,2013-07-02 18:02:00,
2013-07-02 13:12:00,81.0,58.0,-100.00,NW,320,4.0,12.0,44,0.00,,,-99.99,,2013-07-02 18:12:00,
2013-07-02 13:23:00,81.0,58.0,-100.00,NNW,330,7.0,11.0,44,0.00,,,-99.99,,2013-07-02 18:23:00,
2013-07-02 13:34:00,81.0,59.0,-100.00,North,350,8.0,16.0,46,0.00,,,-99.99,,2013-07-02 18:34:00,
2013-07-02 13:43:00,80.0,57.0,-100.00,NNW,345,4.0,12.0,45,0.00,,,-99.99,,2013-07-02 18:43:00,
2013-07-02 14:01:00,79.0,58.0,-100.00,NNW,330,5.0,7.0,48,0.00,,,-99.99,,2013-07-02 19:01:00,
2013-07-02 14:12:00,78.0,56.0,-100.00,NNW,330,8.0,12.0,46,0.00,,,-99.99,,2013-07-02 19:12:00,
2013-07-02 14:22:00,81.0,58.0,-100.00,WNW,300,7.0,12.0,46,0.00,,,-99.99,,2013-07-02 19:22:00,
2013-07-02 14:34:00,81.0,58.0,-100.00,WNW,290,4.0,10.0,45,0.00,,,-99.99,,2013-07-02 19:34:00,
2013-07-02 14:43:00,81.0,58.0,-100.00,WNW,290,6.0,12.0,45,0.00,,,-99.99,,2013-07-02 19:43:00,
2013-07-02 14:53:00,81.0,58.0,-100.00,WNW,290,6.0,12.0,45,0.00,,,-99.99,,2013-07-02 19:53:00,
2013-07-02 15:02:00,81.0,58.0,-100.00,WNW,290,6.0,12.0,45,0.00,,,-99.99,,2013-07-02 20:02:00,
2013-07-02 15:11:00,75.0,55.0,-100.00,NW,325,14.0,21.0,50,0.07,,,-99.99,,2013-07-02 20:11:00,
2013-07-02 15:43:00,75.0,59.0,-100.00,West,265,4.0,7.0,58,0.00,,,-99.99,,2013-07-02 20:43:00,
2013-07-02 15:52:00,75.0,59.0,-100.00,West,265,4.0,7.0,58,0.00,,,-99.99,,2013-07-02 20:52:00,
2013-07-02 16:02:00,80.0,60.0,-100.00,WSW,240,4.0,6.0,50,0.00,,,-99.99,,2013-07-02 21:02:00,
2013-07-02 16:11:00,79.0,61.0,-100.00,SW,225,5.0,7.0,54,0.00,,,-99.99,,2013-07-02 21:11:00,
2013-07-02 16:22:00,73.0,60.0,-100.00,North,0,12.0,21.0,62,0.72,,,-99.99,,2013-07-02 21:22:00,
2013-07-02 16:44:00,71.0,57.0,-100.00,West,260,5.0,9.0,61,0.00,,,-99.99,,2013-07-02 21:44:00,
2013-07-02 16:52:00,71.0,57.0,-100.00,West,260,5.0,9.0,61,0.00,,,-99.99,,2013-07-02 21:52:00,
2013-07-02 17:01:00,72.0,59.0,-100.00,West,265,11.0,15.0,64,0.00,,,-99.99,,2013-07-02 22:01:00,
2013-07-02 17:11:00,72.0,59.0,-100.00,West,265,11.0,15.0,64,0.00,,,-99.99,,2013-07-02 22:11:00,
2013-07-02 17:22:00,71.0,60.0,-100.00,West,270,7.0,9.0,67,0.00,,,-99.99,,2013-07-02 22:22:00,
2013-07-02 17:34:00,71.0,60.0,-100.00,West,270,7.0,9.0,67,0.00,,,-99.99,,2013-07-02 22:34:00,
2013-07-02 17:43:00,71.0,59.0,-100.00,West,265,7.0,12.0,65,0.00,,,-99.99,,2013-07-02 22:43:00,
2013-07-02 17:53:00,72.0,61.0,-100.00,West,265,6.0,9.0,68,0.00,,,-99.99,,2013-07-02 22:53:00,
2013-07-02 18:01:00,74.0,63.0,-100.00,West,280,7.0,9.0,66,0.00,,,-99.99,,2013-07-02 23:01:00,
2013-07-02 18:11:00,76.0,63.0,-100.00,WNW,295,7.0,9.0,62,0.00,,,-99.99,,2013-07-02 23:11:00,
2013-07-02 18:22:00,78.0,63.0,-100.00,NNW,345,6.0,10.0,60,0.00,,,-99.99,,2013-07-02 23:22:00,
2013-07-02 18:33:00,78.0,63.0,-100.00,NNW,345,6.0,10.0,60,0.00,,,-99.99,,2013-07-02 23:33:00,
2013-07-02 18:44:00,78.0,62.0,-100.00,NNW,345,3.0,7.0,57,0.00,,,-99.99,,2013-07-02 23:44:00,
2013-07-02 18:52:00,79.0,62.0,-100.00,NW,305,2.0,3.0,54,0.00,,,-99.99,,2013-07-02 23:52:00,
2013-07-02 19:01:00,79.0,61.0,-100.00,West,275,2.0,4.0,55,0.00,,,-99.99,,2013-07-03 00:01:00,
2013-07-02 19:11:00,79.0,61.0,-100.00,West,275,2.0,4.0,55,0.00,,,-99.99,,2013-07-03 00:11:00,
2013-07-02 19:33:00,78.0,60.0,-100.00,NW,320,6.0,9.0,54,0.00,,,-99.99,,2013-07-03 00:33:00,
2013-07-02 19:44:00,76.0,60.0,-100.00,North,350,4.0,6.0,57,0.00,,,-99.99,,2013-07-03 00:44:00,
2013-07-02 19:52:00,76.0,61.0,-100.00,NW,320,4.0,6.0,59,0.00,,,-99.99,,2013-07-03 00:52:00,
2013-07-02 20:01:00,75.0,61.0,-100.00,NNW,330,4.0,6.0,61,0.00,,,-99.99,,2013-07-03 01:01:00,
2013-07-02 20:11:00,73.0,60.0,-100.00,NW,320,4.0,4.0,63,0.00,,,-99.99,,2013-07-03 01:11:00,
2013-07-02 20:22:00,72.0,60.0,-100.00,NW,320,3.0,5.0,64,0.00,,,-99.99,,2013-07-03 01:22:00,
2013-07-02 20:33:00,73.0,58.0,-100.00,WNW,295,5.0,6.0,58,0.00,,,-99.99,,2013-07-03 01:33:00,
2013-07-02 20:42:00,73.0,57.0,-100.00,WNW,290,6.0,7.0,56,0.00,,,-99.99,,2013-07-03 01:42:00,
2013-07-02 21:04:00,72.0,58.0,-100.00,WNW,295,5.0,6.0,60,0.00,,,-99.99,,2013-07-03 02:04:00,
2013-07-02 21:14:00,72.0,58.0,-100.00,WNW,295,5.0,6.0,60,0.00,,,-99.99,,2013-07-03 02:14:00,
2013-07-02 21:26:00,70.0,58.0,-100.00,SE,140,0.0,2.0,64,0.00,,,-99.99,,2013-07-03 02:26:00,
2013-07-02 21:39:00,69.0,58.0,-100.00,WNW,290,1.0,2.0,67,0.00,,,-99.99,,2013-07-03 02:39:00,
2013-07-02 21:44:00,69.0,58.0,-100.00,SE,145,0.0,2.0,69,0.00,,,-99.99,,2013-07-03 02:44:00,
2013-07-02 22:13:00,70.0,58.0,-100.00,West,275,1.0,1.0,66,0.00,,,-99.99,,2013-07-03 03:13:00,
2013-07-02 22:25:00,69.0,58.0,-100.00,South,190,0.0,3.0,67,0.00,,,-99.99,,2013-07-03 03:25:00,
2013-07-02 22:35:00,70.0,58.0,-100.00,NW,320,1.0,4.0,66,0.00,,,-99.99,,2013-07-03 03:35:00,
2013-07-02 22:55:00,69.0,58.0,-100.00,NW,315,4.0,5.0,67,0.00,,,-99.99,,2013-07-03 03:55:00,
2013-07-02 23:01:00,69.0,58.0,-100.00,NW,315,4.0,5.0,67,0.00,,,-99.99,,2013-07-03 04:01:00,
2013-07-02 23:11:00,68.0,58.0,-100.00,NW,315,4.0,6.0,70,0.00,,,-99.99,,2013-07-03 04:11:00,
2013-07-02 23:43:00,65.0,59.0,-100.00,North,0,6.0,8.0,80,0.00,,,-99.99,,2013-07-03 04:43:00,